Marshfield, WI

7:37 PM CDT on June 28, 2017 (GMT -0500)
Marshfield Municipal

Weather History for KMFI - March, 2013

Change the Weather History Date:

Thursday, March 21, 2013

  Actual Average Record
Temperature  
Mean Temperature 10 °F -  
Max Temperature 21 °F 40 °F 72 °F (2012)
Min Temperature 0 °F 22 °F -12 °F (1965)
Degree Days  
Heating Degree Days 54    
Moisture  
Dew Point 3 °F    
Average Humidity 69    
Maximum Humidity 83    
Minimum Humidity 57    
Precipitation  
Precipitation 0.00 in - - ()
Sea Level Pressure  
Sea Level Pressure 30.08 in    
Wind  
Wind Speed 8 mph (WNW)    
Max Wind Speed 10 mph    
Max Gust Speed -    
Visibility 10 miles    
Events      
Averages and records for this station are not official NWS values.
T = Trace of Precipitation, MM = Missing Value Source: NWS Daily Summary

Daily Weather History Graph

Daily Weather History Graph

Search for Another Location

Airport or City:

Trip Planner

Search our weather history database for the weather conditions in past years. The results will help you decide how hot, cold, wet, or windy it might be!

Date:

Astronomy

Mar. 21, 2013 Rise Set
Actual Time 7:01 AM CDT 7:14 PM CDT
Civil Twilight 6:32 AM CDT 7:43 PM CDT
Nautical Twilight 5:58 AM CDT 8:18 PM CDT
Astronomical Twilight 5:23 AM CDT 8:53 PM CDT
Moon 1:33 PM CDT (3/21) 3:35 AM CDT (3/21)
Length of Visible Light 13h 11m
Length of Day
12h 13m
Waxing Gibbous, 69% of the Moon is Illuminated
Mar 21
Waxing Gibbous
Mar 27
Full
Apr 2
Last Quarter
Apr 10
New
Apr 18
First Quarter

Hourly Weather History & Observations

Time (CDT) Temp. Windchill Dew Point Humidity Pressure Visibility Wind Dir Wind Speed Gust Speed Precip Events Conditions
1:54 AM 3.9 °F -9.4 °F -2.0 °F 76% 30.11 in 10.0 mi WNW 8.1 mph - N/A   Clear
2:54 AM 1.0 °F -12.9 °F -4.0 °F 79% 30.10 in 10.0 mi NW 8.1 mph - N/A   Clear
3:54 AM -0.0 °F -14.2 °F -5.1 °F 79% 30.10 in 10.0 mi NW 8.1 mph - N/A   Clear
4:54 AM -0.9 °F -14.1 °F -5.1 °F 83% 30.08 in 10.0 mi NW 6.9 mph - N/A   Clear
5:54 AM -0.0 °F -11.6 °F -5.1 °F 79% 30.08 in 10.0 mi WNW 5.8 mph - N/A   Clear
6:54 AM 1.0 °F -14.9 °F -4.0 °F 79% 30.10 in 10.0 mi NNW 10.4 mph - N/A   Clear
7:54 AM 3.0 °F -12.5 °F -2.0 °F 80% 30.10 in 10.0 mi WNW 10.4 mph - N/A   Clear
8:54 AM 5.0 °F -6.9 °F -0.9 °F 76% 30.11 in 10.0 mi WNW 6.9 mph - N/A   Clear
9:15 AM 8.6 °F -1.3 °F 1.4 °F 73% 30.01 in 10.0 mi WNW 5.8 mph - N/A   Mostly Cloudy
9:54 AM 10.9 °F -1.8 °F 3.0 °F 70% 30.10 in 10.0 mi WNW 9.2 mph - N/A   Overcast
10:24 AM 12.2 °F 1.7 °F 5.0 °F 73% 30.01 in 10.0 mi WNW 6.9 mph - N/A   Scattered Clouds
10:54 AM 15.1 °F 6.4 °F 6.1 °F 68% 30.11 in 10.0 mi WNW 5.8 mph - N/A   Clear
11:54 AM 18.0 °F 7.7 °F 7.0 °F 62% 30.10 in 10.0 mi NW 8.1 mph - N/A   Clear
12:54 PM 19.0 °F 11.1 °F 8.1 °F 62% 30.09 in 10.0 mi NW 5.8 mph - N/A   Clear
1:54 PM 19.0 °F 8.2 °F 7.0 °F 59% 30.08 in 10.0 mi WSW 9.2 mph - N/A   Clear
3:54 PM 21.0 °F 11.4 °F 8.1 °F 57% 30.07 in 10.0 mi West 8.1 mph - N/A   Clear
4:54 PM 21.9 °F 14.5 °F 9.0 °F 58% 30.06 in 10.0 mi WNW 5.8 mph - N/A   Clear
5:54 PM 21.0 °F 13.4 °F 9.0 °F 60% 30.06 in 10.0 mi WNW 5.8 mph - N/A   Clear
6:54 PM 19.9 °F 12.1 °F 7.0 °F 57% 30.06 in 10.0 mi WNW 5.8 mph - N/A   Clear
7:54 PM 17.1 °F 7.6 °F 6.1 °F 62% 30.06 in 10.0 mi WNW 6.9 mph - N/A   Clear
8:54 PM 16.0 °F 4.4 °F 5.0 °F 62% 30.06 in 10.0 mi NW 9.2 mph - N/A   Clear
9:54 PM 16.0 °F 5.3 °F 5.0 °F 62% 30.06 in 10.0 mi WNW 8.1 mph - N/A   Clear
10:54 PM 14.0 °F 3.9 °F 5.0 °F 67% 30.07 in 10.0 mi WNW 6.9 mph - N/A   Clear
11:54 PM 12.0 °F 0.5 °F 3.0 °F 67% 30.08 in 10.0 mi WNW 8.1 mph - N/A   Clear